This is the latest recevied weather packets stored in our database for station/object KC3DGM. If no packets are shown the sender has not sent any weather packets the latest 10 day(s).
| Time | Temp. | Humidity | Pressure | Rain* | Wind** | Luminosity | Snow |
|---|---|---|---|---|---|---|---|
| 1777855836 | 10° C | 64% | 983.5 hPa | 0 mm | - | 0 W/m² | - |
| 1777855534 | 10.56° C | 59% | 983.7 hPa | 0 mm | - | 0 W/m² | - |
| 1777855230 | 11.11° C | 58% | 983.6 hPa | 0 mm | - | 0 W/m² | - |
| 1777854926 | 11.67° C | 55% | 983.4 hPa | 0 mm | - | 0 W/m² | - |
| 1777854623 | 12.22° C | 54% | 983.3 hPa | 0 mm | - | 0 W/m² | - |
| 1777854320 | 12.78° C | 51% | 983.5 hPa | 0 mm | - | 0 W/m² | - |
| 1777854018 | 12.78° C | 50% | 983.4 hPa | 0 mm | - | 0 W/m² | - |
| 1777853715 | 12.78° C | 51% | 983.6 hPa | 0 mm | - | 2 W/m² | - |
| 1777853411 | 12.78° C | 52% | 983.6 hPa | 0 mm | - | 3 W/m² | - |
| 1777853109 | 12.78° C | 51% | 983.6 hPa | 0 mm | - | 5 W/m² | - |
| 1777852806 | 13.33° C | 50% | 983.6 hPa | 0 mm | - | 6 W/m² | - |
| 1777852504 | 13.33° C | 50% | 983.4 hPa | 0 mm | - | 10 W/m² | - |
| 1777852201 | 13.89° C | 48% | 983.4 hPa | 0 mm | - | 15 W/m² | - |
| 1777851898 | 13.89° C | 48% | 983.6 hPa | 0 mm | - | 16 W/m² | - |
| 1777851596 | 13.89° C | 47% | 983.4 hPa | 0 mm | - | 17 W/m² | - |
| 1777851292 | 13.89° C | 50% | 983.5 hPa | 0 mm | - | 20 W/m² | - |
| 1777850988 | 13.89° C | 49% | 983.5 hPa | 0 mm | - | 19 W/m² | - |
| 1777850686 | 13.89° C | 47% | 983.5 hPa | 0 mm | - | 24 W/m² | - |
| 1777850383 | 13.89° C | 47% | 983.4 hPa | 0 mm | - | 25 W/m² | - |
| 1777850081 | 13.89° C | 47% | 983.3 hPa | 0 mm | - | 26 W/m² | - |
| 1777849777 | 13.89° C | 49% | 983.4 hPa | 0 mm | - | 28 W/m² | - |
| 1777849474 | 13.89° C | 46% | 983.6 hPa | 0 mm | - | 28 W/m² | - |
| 1777849172 | 13.89° C | 47% | 983.6 hPa | 0 mm | - | 34 W/m² | - |
| 1777848868 | 13.89° C | 45% | 983.5 hPa | 0 mm | - | 39 W/m² | - |
| 1777848564 | 13.89° C | 46% | 983.4 hPa | 0 mm | - | 42 W/m² | - |
* Rain latest hour (hover to see other rain measurements)
** Current wind speed in m/s (hover to see current wind gust speed)